This is the latest recevied weather packets stored in our database for station/object KP4FJC. If no packets are shown the sender has not sent any weather packets the latest 1 day(s).
| Time | Temp. | Humidity | Pressure | Rain* | Wind** | Luminosity | Snow |
|---|---|---|---|---|---|---|---|
| 1778029842 | 26.67° C | 79% | 1018.8 hPa | 0 mm | 0 m/s | 0 W/m² | - |
| 1778029536 | 27.22° C | 78% | 1019.1 hPa | 0 mm | 1.34 m/s, 122° | 0 W/m² | - |
| 1778029232 | 27.22° C | 78% | 1019 hPa | 0 mm | 1.34 m/s, 94° | 0 W/m² | - |
| 1778028929 | 27.22° C | 78% | 1018.8 hPa | 0 mm | 0 m/s | 0 W/m² | - |
| 1778028625 | 27.22° C | 77% | 1018.9 hPa | 0 mm | 0.45 m/s, 57° | 0 W/m² | - |
| 1778028323 | 27.22° C | 77% | 1018.9 hPa | 0 mm | 0.45 m/s, 139° | 0 W/m² | - |
| 1778028019 | 27.22° C | 76% | 1018.6 hPa | 0 mm | 0.89 m/s, 46° | 0 W/m² | - |
| 1778027716 | 27.22° C | 76% | 1018.8 hPa | 0 mm | 0.45 m/s, 85° | 0 W/m² | - |
| 1778027412 | 27.78° C | 76% | 1018.9 hPa | 0 mm | 0.45 m/s, 75° | 0 W/m² | - |
| 1778027108 | 27.78° C | 76% | 1018.8 hPa | 0 mm | 0.45 m/s, 99° | 0 W/m² | - |
| 1778026803 | 27.78° C | 75% | 1018.6 hPa | 0 mm | 0.45 m/s, 46° | 0 W/m² | - |
| 1778026500 | 27.78° C | 75% | 1018.7 hPa | 0 mm | 1.34 m/s, 101° | 0 W/m² | - |
| 1778026198 | 27.78° C | 75% | 1018.5 hPa | 0 mm | 0.89 m/s, 74° | 0 W/m² | - |
| 1778025895 | 27.78° C | 74% | 1018.5 hPa | 0 mm | 1.79 m/s, 106° | 0 W/m² | - |
| 1778025592 | 27.78° C | 74% | 1018.6 hPa | 0 mm | 0.45 m/s, 67° | 0 W/m² | - |
| 1778025290 | 27.78° C | 73% | 1018.3 hPa | 0 mm | 0.45 m/s, 165° | 0 W/m² | - |
| 1778024987 | 27.78° C | 73% | 1018.2 hPa | 0 mm | 2.24 m/s, 90° | 0 W/m² | - |
| 1778024684 | 27.78° C | 72% | 1018.3 hPa | 0 mm | 0.89 m/s, 247° | 0 W/m² | - |
| 1778024380 | 27.78° C | 72% | 1018.2 hPa | 0 mm | 0.89 m/s, 148° | 0 W/m² | - |
| 1778024078 | 28.33° C | 71% | 1018.3 hPa | 0 mm | 0.89 m/s, 67° | 0 W/m² | - |
| 1778023776 | 28.33° C | 71% | 1018.2 hPa | 0 mm | 0 m/s | 0 W/m² | - |
| 1778023474 | 28.33° C | 70% | 1018.2 hPa | 0 mm | 1.34 m/s, 133° | 0 W/m² | - |
| 1778023170 | 28.33° C | 71% | 1018 hPa | 0 mm | 1.34 m/s, 142° | 0 W/m² | - |
| 1778022868 | 28.33° C | 70% | 1018.2 hPa | 0 mm | 1.34 m/s, 65° | 0 W/m² | - |
| 1778022566 | 28.33° C | 70% | 1018.1 hPa | 0 mm | 2.24 m/s, 117° | 0 W/m² | - |
* Rain latest hour (hover to see other rain measurements)
** Current wind speed in m/s (hover to see current wind gust speed)